Date_Time,Julian_Date,Latitude,Longitude,Instrument_Depth,U,V,Speed,Direction
(yyyy-mm-dd hh:mn:ss UTC),(JD),(+ deg. North),(+ deg. East),(m),(cm/s),(cm/s),(cm/s),(deg True)
1983-08-10 18:00:00 UTC,2445557.250000,28.7467,-95.2267,0206,4.50,7.79,9.0000,30.0000
1983-08-10 18:30:00 UTC,2445557.270833,28.7467,-95.2267,0206,6.29,7.77,10.0000,39.0000
1983-08-10 19:00:00 UTC,2445557.291667,28.7467,-95.2267,0206,6.25,6.47,9.0000,44.0000
1983-08-10 19:30:00 UTC,2445557.312500,28.7467,-95.2267,0206,5.14,6.13,8.0000,40.0000
1983-08-10 20:00:00 UTC,2445557.333333,28.7467,-95.2267,0206,4.11,5.66,7.0000,36.0000
1983-08-10 20:30:00 UTC,2445557.354167,28.7467,-95.2267,0206,3.71,5.94,7.0000,32.0000
1983-08-10 21:00:00 UTC,2445557.375000,28.7467,-95.2267,0206,3.00,5.20,6.0000,30.0000
1983-08-10 21:30:00 UTC,2445557.395833,28.7467,-95.2267,0206,3.41,3.66,5.0000,43.0000
1983-08-10 22:00:00 UTC,2445557.416667,28.7467,-95.2267,0206,3.76,1.37,4.0000,70.0000
1983-08-10 22:30:00 UTC,2445557.437500,28.7467,-95.2267,0206,4.91,-0.95,5.0000,101.0000
1983-08-10 23:00:00 UTC,2445557.458333,28.7467,-95.2267,0206,4.39,-4.09,6.0000,133.0000
1983-08-10 23:30:00 UTC,2445557.479167,28.7467,-95.2267,0206,2.96,-6.34,7.0000,155.0000
1983-08-11 00:00:00 UTC,2445557.500000,28.7467,-95.2267,0206,1.80,-7.79,8.0000,167.0000
1983-08-11 00:30:00 UTC,2445557.520833,28.7467,-95.2267,0206,0.70,-7.97,8.0000,175.0000
1983-08-11 01:00:00 UTC,2445557.541667,28.7467,-95.2267,0206,-0.28,-8.00,8.0000,182.0000
1983-08-11 01:30:00 UTC,2445557.562500,28.7467,-95.2267,0206,-0.85,-6.95,7.0000,187.0000
1983-08-11 02:00:00 UTC,2445557.583333,28.7467,-95.2267,0206,-1.25,-5.87,6.0000,192.0000
1983-08-11 02:30:00 UTC,2445557.604167,28.7467,-95.2267,0206,-1.38,-4.81,5.0000,196.0000
1983-08-11 03:00:00 UTC,2445557.625000,28.7467,-95.2267,0206,0.09,5.00,5.0000,1.0000
1983-08-11 03:30:00 UTC,2445557.645833,28.7467,-95.2267,0206,-1.95,-4.60,5.0000,203.0000
1983-08-11 04:00:00 UTC,2445557.666667,28.7467,-95.2267,0206,-2.34,-5.52,6.0000,203.0000
1983-08-11 04:30:00 UTC,2445557.687500,28.7467,-95.2267,0206,-2.16,-6.66,7.0000,198.0000
1983-08-11 05:00:00 UTC,2445557.708333,28.7467,-95.2267,0206,-1.53,-7.85,8.0000,191.0000
1983-08-11 05:30:00 UTC,2445557.729167,28.7467,-95.2267,0206,-0.63,-8.98,9.0000,184.0000
1983-08-11 06:00:00 UTC,2445557.750000,28.7467,-95.2267,0206,-0.28,-8.00,8.0000,182.0000
1983-08-11 06:30:00 UTC,2445557.770833,28.7467,-95.2267,0206,-0.84,-7.96,8.0000,186.0000
1983-08-11 07:00:00 UTC,2445557.791667,28.7467,-95.2267,0206,-1.56,-8.86,9.0000,190.0000
1983-08-11 07:30:00 UTC,2445557.812500,28.7467,-95.2267,0206,-1.56,-9.88,10.0000,189.0000
1983-08-11 08:00:00 UTC,2445557.833333,28.7467,-95.2267,0206,-1.39,-9.90,10.0000,188.0000
1983-08-11 08:30:00 UTC,2445557.854167,28.7467,-95.2267,0206,-0.56,-7.98,8.0000,184.0000
1983-08-11 09:00:00 UTC,2445557.875000,28.7467,-95.2267,0206,0.09,-5.00,5.0000,179.0000
1983-08-11 09:30:00 UTC,2445557.895833,28.7467,-95.2267,0206,0.93,-2.85,3.0000,162.0000
1983-08-11 10:00:00 UTC,2445557.916667,28.7467,-95.2267,0206,1.66,1.12,2.0000,56.0000
1983-08-11 10:30:00 UTC,2445557.937500,28.7467,-95.2267,0206,2.72,4.19,5.0000,33.0000
1983-08-11 11:00:00 UTC,2445557.958333,28.7467,-95.2267,0206,3.41,3.66,5.0000,43.0000
1983-08-11 11:30:00 UTC,2445557.979167,28.7467,-95.2267,0206,2.82,1.03,3.0000,70.0000
1983-08-11 12:00:00 UTC,2445558.000000,28.7467,-95.2267,0206,0.78,-0.63,1.0000,129.0000
1983-08-11 12:30:00 UTC,2445558.020833,28.7467,-95.2267,0206,-0.10,-2.00,2.0000,183.0000
1983-08-11 13:00:00 UTC,2445558.041667,28.7467,-95.2267,0206,-0.97,-3.88,4.0000,194.0000
1983-08-11 13:30:00 UTC,2445558.062500,28.7467,-95.2267,0206,-0.61,-4.96,5.0000,187.0000
1983-08-11 14:00:00 UTC,2445558.083333,28.7467,-95.2267,0206,-0.09,-5.00,5.0000,181.0000
1983-08-11 14:30:00 UTC,2445558.104167,28.7467,-95.2267,0206,0.00,-5.00,5.0000,180.0000
1983-08-11 15:00:00 UTC,2445558.125000,28.7467,-95.2267,0206,0.52,-5.98,6.0000,175.0000
1983-08-11 15:30:00 UTC,2445558.145833,28.7467,-95.2267,0206,1.45,-5.82,6.0000,166.0000
1983-08-11 16:00:00 UTC,2445558.166667,28.7467,-95.2267,0206,3.18,-6.24,7.0000,153.0000
1983-08-11 16:30:00 UTC,2445558.187500,28.7467,-95.2267,0206,4.68,-5.20,7.0000,138.0000
1983-08-11 17:00:00 UTC,2445558.208333,28.7467,-95.2267,0206,6.71,-4.36,8.0000,123.0000
1983-08-11 17:30:00 UTC,2445558.229167,28.7467,-95.2267,0206,7.79,-4.50,9.0000,120.0000
1983-08-11 18:00:00 UTC,2445558.250000,28.7467,-95.2267,0206,8.57,-5.15,10.0000,121.0000
1983-08-11 18:30:00 UTC,2445558.270833,28.7467,-95.2267,0206,7.73,-2.07,8.0000,105.0000
1983-08-11 19:00:00 UTC,2445558.291667,28.7467,-95.2267,0206,6.58,2.39,7.0000,70.0000
1983-08-11 19:30:00 UTC,2445558.312500,28.7467,-95.2267,0206,5.20,4.68,7.0000,48.0000
1983-08-11 20:00:00 UTC,2445558.333333,28.7467,-95.2267,0206,4.24,4.24,6.0000,45.0000
1983-08-11 20:30:00 UTC,2445558.354167,28.7467,-95.2267,0206,4.01,4.46,6.0000,42.0000
1983-08-11 21:00:00 UTC,2445558.375000,28.7467,-95.2267,0206,4.50,5.36,7.0000,40.0000
1983-08-11 21:30:00 UTC,2445558.395833,28.7467,-95.2267,0206,4.41,5.44,7.0000,39.0000
1983-08-11 22:00:00 UTC,2445558.416667,28.7467,-95.2267,0206,3.61,6.00,7.0000,31.0000
1983-08-11 22:30:00 UTC,2445558.437500,28.7467,-95.2267,0206,1.95,5.67,6.0000,19.0000
1983-08-11 23:00:00 UTC,2445558.458333,28.7467,-95.2267,0206,2.27,4.46,5.0000,27.0000
1983-08-11 23:30:00 UTC,2445558.479167,28.7467,-95.2267,0206,3.60,1.75,4.0000,64.0000
1983-08-12 00:00:00 UTC,2445558.500000,28.7467,-95.2267,0206,2.94,-0.57,3.0000,101.0000
1983-08-12 00:30:00 UTC,2445558.520833,28.7467,-95.2267,0206,2.19,-2.05,3.0000,133.0000
1983-08-12 01:00:00 UTC,2445558.541667,28.7467,-95.2267,0206,0.95,-4.91,5.0000,169.0000
1983-08-12 01:30:00 UTC,2445558.562500,28.7467,-95.2267,0206,-1.11,-7.92,8.0000,188.0000
1983-08-12 02:00:00 UTC,2445558.583333,28.7467,-95.2267,0206,-2.78,-8.56,9.0000,198.0000
1983-08-12 02:30:00 UTC,2445558.604167,28.7467,-95.2267,0206,-3.25,-7.31,8.0000,204.0000
1983-08-12 03:00:00 UTC,2445558.625000,28.7467,-95.2267,0206,-2.82,-5.30,6.0000,208.0000
1983-08-12 03:30:00 UTC,2445558.645833,28.7467,-95.2267,0206,-0.05,-1.00,1.0000,183.0000
1983-08-12 04:00:00 UTC,2445558.666667,28.7467,-95.2267,0206,2.83,2.83,4.0000,45.0000
1983-08-12 04:30:00 UTC,2445558.687500,28.7467,-95.2267,0206,4.15,2.80,5.0000,56.0000
1983-08-12 05:00:00 UTC,2445558.708333,28.7467,-95.2267,0206,3.80,1.24,4.0000,72.0000
1983-08-12 05:30:00 UTC,2445558.729167,28.7467,-95.2267,0206,2.60,1.50,3.0000,60.0000
1983-08-12 06:00:00 UTC,2445558.750000,28.7467,-95.2267,0206,2.26,1.97,3.0000,49.0000
1983-08-12 06:30:00 UTC,2445558.770833,28.7467,-95.2267,0206,3.00,0.10,3.0000,88.0000
1983-08-12 07:00:00 UTC,2445558.791667,28.7467,-95.2267,0206,3.73,-1.43,4.0000,111.0000
1983-08-12 07:30:00 UTC,2445558.812500,28.7467,-95.2267,0206,3.68,-1.56,4.0000,113.0000
1983-08-12 08:00:00 UTC,2445558.833333,28.7467,-95.2267,0206,2.99,-0.26,3.0000,95.0000
1983-08-12 08:30:00 UTC,2445558.854167,28.7467,-95.2267,0206,2.70,1.32,3.0000,64.0000
1983-08-12 09:00:00 UTC,2445558.875000,28.7467,-95.2267,0206,4.19,2.72,5.0000,57.0000
1983-08-12 09:30:00 UTC,2445558.895833,28.7467,-95.2267,0206,4.19,2.72,5.0000,57.0000
1983-08-12 10:00:00 UTC,2445558.916667,28.7467,-95.2267,0206,3.19,2.41,4.0000,53.0000
1983-08-12 10:30:00 UTC,2445558.937500,28.7467,-95.2267,0206,2.68,2.97,4.0000,42.0000
1983-08-12 11:00:00 UTC,2445558.958333,28.7467,-95.2267,0206,2.18,3.35,4.0000,33.0000
1983-08-12 11:30:00 UTC,2445558.979167,28.7467,-95.2267,0206,2.42,4.37,5.0000,29.0000
1983-08-12 12:00:00 UTC,2445559.000000,28.7467,-95.2267,0206,2.19,4.49,5.0000,26.0000
1983-08-12 12:30:00 UTC,2445559.020833,28.7467,-95.2267,0206,0.73,2.91,3.0000,14.0000
1983-08-12 13:00:00 UTC,2445559.041667,28.7467,-95.2267,0206,-0.88,1.80,2.0000,334.0000
1983-08-12 13:30:00 UTC,2445559.062500,28.7467,-95.2267,0206,-2.70,1.32,3.0000,296.0000
1983-08-12 14:00:00 UTC,2445559.083333,28.7467,-95.2267,0206,-4.00,0.07,4.0000,271.0000
1983-08-12 14:30:00 UTC,2445559.104167,28.7467,-95.2267,0206,-3.93,-0.76,4.0000,259.0000
1983-08-12 15:00:00 UTC,2445559.125000,28.7467,-95.2267,0206,-2.99,-0.26,3.0000,265.0000
1983-08-12 15:30:00 UTC,2445559.145833,28.7467,-95.2267,0206,-2.95,0.52,3.0000,280.0000
1983-08-12 16:00:00 UTC,2445559.166667,28.7467,-95.2267,0206,-1.26,1.55,2.0000,321.0000
1983-08-12 16:30:00 UTC,2445559.187500,28.7467,-95.2267,0206,1.68,2.49,3.0000,34.0000
1983-08-12 17:00:00 UTC,2445559.208333,28.7467,-95.2267,0206,2.57,3.06,4.0000,40.0000
1983-08-12 17:30:00 UTC,2445559.229167,28.7467,-95.2267,0206,2.94,4.05,5.0000,36.0000
1983-08-12 18:00:00 UTC,2445559.250000,28.7467,-95.2267,0206,2.65,4.24,5.0000,32.0000
1983-08-12 18:30:00 UTC,2445559.270833,28.7467,-95.2267,0206,1.71,4.70,5.0000,20.0000
1983-08-12 19:00:00 UTC,2445559.291667,28.7467,-95.2267,0206,0.10,6.00,6.0000,1.0000
1983-08-12 19:30:00 UTC,2445559.312500,28.7467,-95.2267,0206,-0.61,6.97,7.0000,355.0000
1983-08-12 20:00:00 UTC,2445559.333333,28.7467,-95.2267,0206,-0.42,7.99,8.0000,357.0000
1983-08-12 20:30:00 UTC,2445559.354167,28.7467,-95.2267,0206,-0.14,8.00,8.0000,359.0000
1983-08-12 21:00:00 UTC,2445559.375000,28.7467,-95.2267,0206,0.56,7.98,8.0000,4.0000
1983-08-12 21:30:00 UTC,2445559.395833,28.7467,-95.2267,0206,0.94,8.95,9.0000,6.0000
1983-08-12 22:00:00 UTC,2445559.416667,28.7467,-95.2267,0206,1.05,9.95,10.0000,6.0000
1983-08-12 22:30:00 UTC,2445559.437500,28.7467,-95.2267,0206,1.15,10.94,11.0000,6.0000
1983-08-12 23:00:00 UTC,2445559.458333,28.7467,-95.2267,0206,1.34,10.92,11.0000,7.0000
1983-08-12 23:30:00 UTC,2445559.479167,28.7467,-95.2267,0206,1.53,10.89,11.0000,8.0000
1983-08-13 00:00:00 UTC,2445559.500000,28.7467,-95.2267,0206,1.34,10.92,11.0000,7.0000
1983-08-13 00:30:00 UTC,2445559.520833,28.7467,-95.2267,0206,1.67,11.88,12.0000,8.0000
1983-08-13 01:00:00 UTC,2445559.541667,28.7467,-95.2267,0206,1.88,11.85,12.0000,9.0000
1983-08-13 01:30:00 UTC,2445559.562500,28.7467,-95.2267,0206,0.58,10.98,11.0000,3.0000
1983-08-13 02:00:00 UTC,2445559.583333,28.7467,-95.2267,0206,-1.05,9.95,10.0000,354.0000
1983-08-13 02:30:00 UTC,2445559.604167,28.7467,-95.2267,0206,-1.91,9.82,10.0000,349.0000
1983-08-13 03:00:00 UTC,2445559.625000,28.7467,-95.2267,0206,-2.85,10.63,11.0000,345.0000
1983-08-13 03:30:00 UTC,2445559.645833,28.7467,-95.2267,0206,-3.26,9.46,10.0000,341.0000
1983-08-13 04:00:00 UTC,2445559.666667,28.7467,-95.2267,0206,-3.09,9.51,10.0000,342.0000
1983-08-13 04:30:00 UTC,2445559.687500,28.7467,-95.2267,0206,-2.76,9.61,10.0000,344.0000
1983-08-13 05:00:00 UTC,2445559.708333,28.7467,-95.2267,0206,-3.58,10.40,11.0000,341.0000
1983-08-13 05:30:00 UTC,2445559.729167,28.7467,-95.2267,0206,-4.65,9.97,11.0000,335.0000
1983-08-13 06:00:00 UTC,2445559.750000,28.7467,-95.2267,0206,-4.65,9.97,11.0000,335.0000
1983-08-13 06:30:00 UTC,2445559.770833,28.7467,-95.2267,0206,-3.91,9.21,10.0000,337.0000
1983-08-13 07:00:00 UTC,2445559.791667,28.7467,-95.2267,0206,-3.52,8.28,9.0000,337.0000
1983-08-13 07:30:00 UTC,2445559.812500,28.7467,-95.2267,0206,-3.52,8.28,9.0000,337.0000
1983-08-13 08:00:00 UTC,2445559.833333,28.7467,-95.2267,0206,-3.08,8.46,9.0000,340.0000
1983-08-13 08:30:00 UTC,2445559.854167,28.7467,-95.2267,0206,-2.63,8.61,9.0000,343.0000
1983-08-13 09:00:00 UTC,2445559.875000,28.7467,-95.2267,0206,-1.87,8.80,9.0000,348.0000
1983-08-13 09:30:00 UTC,2445559.895833,28.7467,-95.2267,0206,-0.87,9.96,10.0000,355.0000
1983-08-13 10:00:00 UTC,2445559.916667,28.7467,-95.2267,0206,-0.17,10.00,10.0000,359.0000
1983-08-13 10:30:00 UTC,2445559.937500,28.7467,-95.2267,0206,0.70,9.98,10.0000,4.0000
1983-08-13 11:00:00 UTC,2445559.958333,28.7467,-95.2267,0206,2.42,9.70,10.0000,14.0000
1983-08-13 11:30:00 UTC,2445559.979167,28.7467,-95.2267,0206,3.40,10.46,11.0000,18.0000
1983-08-13 12:00:00 UTC,2445560.000000,28.7467,-95.2267,0206,3.03,10.57,11.0000,16.0000
1983-08-13 12:30:00 UTC,2445560.020833,28.7467,-95.2267,0206,2.08,9.78,10.0000,12.0000
1983-08-13 13:00:00 UTC,2445560.041667,28.7467,-95.2267,0206,0.63,8.98,9.0000,4.0000
1983-08-13 13:30:00 UTC,2445560.062500,28.7467,-95.2267,0206,-0.78,8.97,9.0000,355.0000
1983-08-13 14:00:00 UTC,2445560.083333,28.7467,-95.2267,0206,-1.25,7.90,8.0000,351.0000
1983-08-13 14:30:00 UTC,2445560.104167,28.7467,-95.2267,0206,-1.39,7.88,8.0000,350.0000
1983-08-13 15:00:00 UTC,2445560.125000,28.7467,-95.2267,0206,-1.10,6.91,7.0000,351.0000
1983-08-13 15:30:00 UTC,2445560.145833,28.7467,-95.2267,0206,-1.25,5.87,6.0000,348.0000
1983-08-13 16:00:00 UTC,2445560.166667,28.7467,-95.2267,0206,-1.55,4.76,5.0000,342.0000
1983-08-13 16:30:00 UTC,2445560.187500,28.7467,-95.2267,0206,-1.82,3.56,4.0000,333.0000
1983-08-13 17:00:00 UTC,2445560.208333,28.7467,-95.2267,0206,-2.57,3.06,4.0000,320.0000
1983-08-13 17:30:00 UTC,2445560.229167,28.7467,-95.2267,0206,-3.08,3.94,5.0000,322.0000
1983-08-13 18:00:00 UTC,2445560.250000,28.7467,-95.2267,0206,-3.39,6.12,7.0000,331.0000
1983-08-13 18:30:00 UTC,2445560.270833,28.7467,-95.2267,0206,-3.58,9.34,10.0000,339.0000
1983-08-13 19:00:00 UTC,2445560.291667,28.7467,-95.2267,0206,-3.11,11.59,12.0000,345.0000
1983-08-13 19:30:00 UTC,2445560.312500,28.7467,-95.2267,0206,-2.48,12.76,13.0000,349.0000
1983-08-13 20:00:00 UTC,2445560.333333,28.7467,-95.2267,0206,-1.81,12.87,13.0000,352.0000
1983-08-13 20:30:00 UTC,2445560.354167,28.7467,-95.2267,0206,-0.98,13.97,14.0000,356.0000
1983-08-13 21:00:00 UTC,2445560.375000,28.7467,-95.2267,0206,0.26,15.00,15.0000,1.0000
1983-08-13 21:30:00 UTC,2445560.395833,28.7467,-95.2267,0206,1.57,14.92,15.0000,6.0000
1983-08-13 22:00:00 UTC,2445560.416667,28.7467,-95.2267,0206,2.09,14.85,15.0000,8.0000
1983-08-13 22:30:00 UTC,2445560.437500,28.7467,-95.2267,0206,2.86,14.72,15.0000,11.0000
1983-08-13 23:00:00 UTC,2445560.458333,28.7467,-95.2267,0206,3.86,13.46,14.0000,16.0000
1983-08-13 23:30:00 UTC,2445560.479167,28.7467,-95.2267,0206,4.66,12.14,13.0000,21.0000
1983-08-14 00:00:00 UTC,2445560.500000,28.7467,-95.2267,0206,4.50,11.13,12.0000,22.0000
1983-08-14 00:30:00 UTC,2445560.520833,28.7467,-95.2267,0206,4.88,10.96,12.0000,24.0000
1983-08-14 01:00:00 UTC,2445560.541667,28.7467,-95.2267,0206,5.83,9.33,11.0000,32.0000
1983-08-14 01:30:00 UTC,2445560.562500,28.7467,-95.2267,0206,6.36,6.36,9.0000,45.0000
1983-08-14 02:00:00 UTC,2445560.583333,28.7467,-95.2267,0206,5.52,4.31,7.0000,52.0000
1983-08-14 02:30:00 UTC,2445560.604167,28.7467,-95.2267,0206,3.69,4.73,6.0000,38.0000
1983-08-14 03:00:00 UTC,2445560.625000,28.7467,-95.2267,0206,2.39,6.58,7.0000,20.0000
1983-08-14 03:30:00 UTC,2445560.645833,28.7467,-95.2267,0206,2.74,7.52,8.0000,20.0000
1983-08-14 04:00:00 UTC,2445560.666667,28.7467,-95.2267,0206,3.63,7.13,8.0000,27.0000
1983-08-14 04:30:00 UTC,2445560.687500,28.7467,-95.2267,0206,2.96,6.34,7.0000,25.0000
1983-08-14 05:00:00 UTC,2445560.708333,28.7467,-95.2267,0206,1.35,5.85,6.0000,13.0000
1983-08-14 05:30:00 UTC,2445560.729167,28.7467,-95.2267,0206,0.97,6.93,7.0000,8.0000
1983-08-14 06:00:00 UTC,2445560.750000,28.7467,-95.2267,0206,1.25,7.90,8.0000,9.0000
1983-08-14 06:30:00 UTC,2445560.770833,28.7467,-95.2267,0206,1.87,8.80,9.0000,12.0000
1983-08-14 07:00:00 UTC,2445560.791667,28.7467,-95.2267,0206,2.33,8.69,9.0000,15.0000
1983-08-14 07:30:00 UTC,2445560.812500,28.7467,-95.2267,0206,2.33,8.69,9.0000,15.0000
1983-08-14 08:00:00 UTC,2445560.833333,28.7467,-95.2267,0206,1.94,7.76,8.0000,14.0000
1983-08-14 08:30:00 UTC,2445560.854167,28.7467,-95.2267,0206,2.34,7.65,8.0000,17.0000
1983-08-14 09:00:00 UTC,2445560.875000,28.7467,-95.2267,0206,2.74,6.44,7.0000,23.0000
1983-08-14 09:30:00 UTC,2445560.895833,28.7467,-95.2267,0206,3.29,6.18,7.0000,28.0000
1983-08-14 10:00:00 UTC,2445560.916667,28.7467,-95.2267,0206,3.07,6.29,7.0000,26.0000
1983-08-14 10:30:00 UTC,2445560.937500,28.7467,-95.2267,0206,3.13,7.36,8.0000,23.0000
1983-08-14 11:00:00 UTC,2445560.958333,28.7467,-95.2267,0206,3.13,7.36,8.0000,23.0000
1983-08-14 11:30:00 UTC,2445560.979167,28.7467,-95.2267,0206,3.38,7.25,8.0000,25.0000
1983-08-14 12:00:00 UTC,2445561.000000,28.7467,-95.2267,0206,3.63,7.13,8.0000,27.0000
1983-08-14 12:30:00 UTC,2445561.020833,28.7467,-95.2267,0206,4.23,7.95,9.0000,28.0000
1983-08-14 13:00:00 UTC,2445561.041667,28.7467,-95.2267,0206,3.63,7.13,8.0000,27.0000
1983-08-14 13:30:00 UTC,2445561.062500,28.7467,-95.2267,0206,2.39,6.58,7.0000,20.0000
1983-08-14 14:00:00 UTC,2445561.083333,28.7467,-95.2267,0206,0.24,7.00,7.0000,2.0000
1983-08-14 14:30:00 UTC,2445561.104167,28.7467,-95.2267,0206,-2.08,9.78,10.0000,348.0000
1983-08-14 15:00:00 UTC,2445561.125000,28.7467,-95.2267,0206,-4.50,11.13,12.0000,338.0000
1983-08-14 15:30:00 UTC,2445561.145833,28.7467,-95.2267,0206,-6.70,11.14,13.0000,329.0000
1983-08-14 16:00:00 UTC,2445561.166667,28.7467,-95.2267,0206,-7.05,9.71,12.0000,324.0000
1983-08-14 16:30:00 UTC,2445561.187500,28.7467,-95.2267,0206,-7.46,10.65,13.0000,325.0000
1983-08-14 17:00:00 UTC,2445561.208333,28.7467,-95.2267,0206,-5.86,13.81,15.0000,337.0000
1983-08-14 17:30:00 UTC,2445561.229167,28.7467,-95.2267,0206,-1.05,14.96,15.0000,356.0000
1983-08-14 18:00:00 UTC,2445561.250000,28.7467,-95.2267,0206,2.91,13.69,14.0000,12.0000
1983-08-14 18:30:00 UTC,2445561.270833,28.7467,-95.2267,0206,5.13,14.10,15.0000,20.0000
1983-08-14 19:00:00 UTC,2445561.291667,28.7467,-95.2267,0206,6.51,14.62,16.0000,24.0000
1983-08-14 19:30:00 UTC,2445561.312500,28.7467,-95.2267,0206,7.26,14.26,16.0000,27.0000
1983-08-14 20:00:00 UTC,2445561.333333,28.7467,-95.2267,0206,8.00,13.86,16.0000,30.0000
1983-08-14 20:30:00 UTC,2445561.354167,28.7467,-95.2267,0206,7.27,13.12,15.0000,29.0000
1983-08-14 21:00:00 UTC,2445561.375000,28.7467,-95.2267,0206,6.79,12.24,14.0000,29.0000
1983-08-14 21:30:00 UTC,2445561.395833,28.7467,-95.2267,0206,7.95,12.72,15.0000,32.0000
1983-08-14 22:00:00 UTC,2445561.416667,28.7467,-95.2267,0206,8.03,11.47,14.0000,35.0000
1983-08-14 22:30:00 UTC,2445561.437500,28.7467,-95.2267,0206,6.18,10.29,12.0000,31.0000
1983-08-14 23:00:00 UTC,2445561.458333,28.7467,-95.2267,0206,4.12,10.20,11.0000,22.0000
1983-08-14 23:30:00 UTC,2445561.479167,28.7467,-95.2267,0206,2.93,8.51,9.0000,19.0000
1983-08-15 00:00:00 UTC,2445561.500000,28.7467,-95.2267,0206,3.38,7.25,8.0000,25.0000
1983-08-15 00:30:00 UTC,2445561.520833,28.7467,-95.2267,0206,3.76,7.06,8.0000,28.0000
1983-08-15 01:00:00 UTC,2445561.541667,28.7467,-95.2267,0206,2.62,6.49,7.0000,22.0000
1983-08-15 01:30:00 UTC,2445561.562500,28.7467,-95.2267,0206,1.57,6.82,7.0000,13.0000
1983-08-15 02:00:00 UTC,2445561.583333,28.7467,-95.2267,0206,0.56,7.98,8.0000,4.0000
1983-08-15 02:30:00 UTC,2445561.604167,28.7467,-95.2267,0206,-1.10,8.93,9.0000,353.0000
1983-08-15 03:00:00 UTC,2445561.625000,28.7467,-95.2267,0206,-3.26,9.46,10.0000,341.0000
1983-08-15 03:30:00 UTC,2445561.645833,28.7467,-95.2267,0206,-4.07,9.14,10.0000,336.0000
1983-08-15 04:00:00 UTC,2445561.666667,28.7467,-95.2267,0206,-3.26,9.46,10.0000,341.0000
1983-08-15 04:30:00 UTC,2445561.687500,28.7467,-95.2267,0206,-1.87,8.80,9.0000,348.0000
1983-08-15 05:00:00 UTC,2445561.708333,28.7467,-95.2267,0206,-1.87,8.80,9.0000,348.0000
1983-08-15 05:30:00 UTC,2445561.729167,28.7467,-95.2267,0206,-1.56,9.88,10.0000,351.0000
1983-08-15 06:00:00 UTC,2445561.750000,28.7467,-95.2267,0206,-0.70,9.98,10.0000,356.0000
1983-08-15 06:30:00 UTC,2445561.770833,28.7467,-95.2267,0206,0.17,10.00,10.0000,1.0000
1983-08-15 07:00:00 UTC,2445561.791667,28.7467,-95.2267,0206,0.87,9.96,10.0000,5.0000
1983-08-15 07:30:00 UTC,2445561.812500,28.7467,-95.2267,0206,1.05,9.95,10.0000,6.0000
1983-08-15 08:00:00 UTC,2445561.833333,28.7467,-95.2267,0206,0.87,9.96,10.0000,5.0000
1983-08-15 08:30:00 UTC,2445561.854167,28.7467,-95.2267,0206,0.58,10.98,11.0000,3.0000
1983-08-15 09:00:00 UTC,2445561.875000,28.7467,-95.2267,0206,0.00,11.00,11.0000,0.0000
1983-08-15 09:30:00 UTC,2445561.895833,28.7467,-95.2267,0206,-0.21,12.00,12.0000,359.0000
1983-08-15 10:00:00 UTC,2445561.916667,28.7467,-95.2267,0206,0.45,12.99,13.0000,2.0000
1983-08-15 10:30:00 UTC,2445561.937500,28.7467,-95.2267,0206,1.22,13.95,14.0000,5.0000
1983-08-15 11:00:00 UTC,2445561.958333,28.7467,-95.2267,0206,1.71,13.90,14.0000,7.0000
1983-08-15 11:30:00 UTC,2445561.979167,28.7467,-95.2267,0206,1.31,14.94,15.0000,5.0000
1983-08-15 12:00:00 UTC,2445562.000000,28.7467,-95.2267,0206,0.56,15.99,16.0000,2.0000
1983-08-15 12:30:00 UTC,2445562.020833,28.7467,-95.2267,0206,-0.28,16.00,16.0000,359.0000
1983-08-15 13:00:00 UTC,2445562.041667,28.7467,-95.2267,0206,-0.30,17.00,17.0000,359.0000
1983-08-15 13:30:00 UTC,2445562.062500,28.7467,-95.2267,0206,0.63,17.99,18.0000,2.0000
1983-08-15 14:00:00 UTC,2445562.083333,28.7467,-95.2267,0206,0.89,16.98,17.0000,3.0000
1983-08-15 14:30:00 UTC,2445562.104167,28.7467,-95.2267,0206,1.12,15.96,16.0000,4.0000
1983-08-15 15:00:00 UTC,2445562.125000,28.7467,-95.2267,0206,1.12,15.96,16.0000,4.0000
1983-08-15 15:30:00 UTC,2445562.145833,28.7467,-95.2267,0206,1.83,14.89,15.0000,7.0000
1983-08-15 16:00:00 UTC,2445562.166667,28.7467,-95.2267,0206,3.05,15.71,16.0000,11.0000
1983-08-15 16:30:00 UTC,2445562.187500,28.7467,-95.2267,0206,3.37,14.62,15.0000,13.0000
1983-08-15 17:00:00 UTC,2445562.208333,28.7467,-95.2267,0206,2.86,14.72,15.0000,11.0000
1983-08-15 17:30:00 UTC,2445562.229167,28.7467,-95.2267,0206,1.46,13.92,14.0000,6.0000
1983-08-15 18:00:00 UTC,2445562.250000,28.7467,-95.2267,0206,0.73,13.98,14.0000,3.0000
1983-08-15 18:30:00 UTC,2445562.270833,28.7467,-95.2267,0206,0.68,12.98,13.0000,3.0000
1983-08-15 19:00:00 UTC,2445562.291667,28.7467,-95.2267,0206,0.84,11.97,12.0000,4.0000
1983-08-15 19:30:00 UTC,2445562.312500,28.7467,-95.2267,0206,0.38,10.99,11.0000,2.0000
1983-08-15 20:00:00 UTC,2445562.333333,28.7467,-95.2267,0206,-0.19,11.00,11.0000,359.0000
1983-08-15 20:30:00 UTC,2445562.354167,28.7467,-95.2267,0206,-0.19,11.00,11.0000,359.0000
1983-08-15 21:00:00 UTC,2445562.375000,28.7467,-95.2267,0206,0.52,9.99,10.0000,3.0000
1983-08-15 21:30:00 UTC,2445562.395833,28.7467,-95.2267,0206,0.52,9.99,10.0000,3.0000
1983-08-15 22:00:00 UTC,2445562.416667,28.7467,-95.2267,0206,-0.35,9.99,10.0000,358.0000
1983-08-15 22:30:00 UTC,2445562.437500,28.7467,-95.2267,0206,-0.78,8.97,9.0000,355.0000
1983-08-15 23:00:00 UTC,2445562.458333,28.7467,-95.2267,0206,-0.61,6.97,7.0000,355.0000
1983-08-15 23:30:00 UTC,2445562.479167,28.7467,-95.2267,0206,-0.73,6.96,7.0000,354.0000
1983-08-16 00:00:00 UTC,2445562.500000,28.7467,-95.2267,0206,-1.04,5.91,6.0000,350.0000
1983-08-16 00:30:00 UTC,2445562.520833,28.7467,-95.2267,0206,-1.45,5.82,6.0000,346.0000
1983-08-16 01:00:00 UTC,2445562.541667,28.7467,-95.2267,0206,-1.65,5.77,6.0000,344.0000
1983-08-16 01:30:00 UTC,2445562.562500,28.7467,-95.2267,0206,-2.25,5.56,6.0000,338.0000
1983-08-16 02:00:00 UTC,2445562.583333,28.7467,-95.2267,0206,-2.42,4.37,5.0000,331.0000
1983-08-16 02:30:00 UTC,2445562.604167,28.7467,-95.2267,0206,-2.58,4.29,5.0000,329.0000
1983-08-16 03:00:00 UTC,2445562.625000,28.7467,-95.2267,0206,-3.27,5.03,6.0000,327.0000
1983-08-16 03:30:00 UTC,2445562.645833,28.7467,-95.2267,0206,-2.94,4.05,5.0000,324.0000
1983-08-16 04:00:00 UTC,2445562.666667,28.7467,-95.2267,0206,-3.01,3.99,5.0000,323.0000
1983-08-16 04:30:00 UTC,2445562.687500,28.7467,-95.2267,0206,-2.18,3.35,4.0000,327.0000
1983-08-16 05:00:00 UTC,2445562.708333,28.7467,-95.2267,0206,-1.00,1.73,2.0000,330.0000
1983-08-16 05:30:00 UTC,2445562.729167,28.7467,-95.2267,0206,-1.92,0.55,2.0000,286.0000
1983-08-16 06:00:00 UTC,2445562.750000,28.7467,-95.2267,0206,-2.96,0.47,3.0000,279.0000
1983-08-16 06:30:00 UTC,2445562.770833,28.7467,-95.2267,0206,-3.63,1.69,4.0000,295.0000
1983-08-16 07:00:00 UTC,2445562.791667,28.7467,-95.2267,0206,-2.54,1.59,3.0000,302.0000
1983-08-16 07:30:00 UTC,2445562.812500,28.7467,-95.2267,0206,-2.96,0.47,3.0000,279.0000
1983-08-16 08:00:00 UTC,2445562.833333,28.7467,-95.2267,0206,-3.96,-0.56,4.0000,262.0000
1983-08-16 08:30:00 UTC,2445562.854167,28.7467,-95.2267,0206,-4.78,-1.46,5.0000,253.0000
1983-08-16 09:00:00 UTC,2445562.875000,28.7467,-95.2267,0206,-5.09,-3.18,6.0000,238.0000
1983-08-16 09:30:00 UTC,2445562.895833,28.7467,-95.2267,0206,-5.12,-4.77,7.0000,227.0000